Tallulah, LA

6:33 PM CST on December 09, 2016 (GMT -0600)
Vicksburg Tallulah Regional

Weather History for KTVR - December, 2013

Change the Weather History Date:

Tuesday, December 3, 2013

  Actual Average Record
Temperature  
Mean Temperature 63 °F 51 °F  
Max Temperature 78 °F 62 °F 83 °F (1982)
Min Temperature 48 °F 40 °F 23 °F (1960)
Degree Days  
Heating Degree Days 2 15  
Month to date heating degree days 23 44  
Since 1 July heating degree days 553 446  
Cooling Degree Days 0 0  
Month to date cooling degree days 0 0  
Year to date cooling degree days 2264 2225  
Growing Degree Days 12 (Base 50)    
Moisture  
Dew Point 58 °F    
Average Humidity 78    
Maximum Humidity 100    
Minimum Humidity 56    
Precipitation  
Precipitation 0.00 in 0.20 in 2.71 in (1953)
Month to date precipitation T 0.60  
Year to date precipitation 63.58 49.73  
Sea Level Pressure  
Sea Level Pressure 29.73 in    
Wind  
Wind Speed 7 mph (South)    
Max Wind Speed 17 mph    
Max Gust Speed 30 mph    
Visibility 5 miles    
Events Fog    
T = Trace of Precipitation, MM = Missing Value Source: NWS Daily Summary

Daily Weather History Graph

Daily Weather History Graph

Search for Another Location

Airport or City:

Trip Planner

Search our weather history database for the weather conditions in past years. The results will help you decide how hot, cold, wet, or windy it might be!

Date:

Astronomy

Dec. 03, 2013 Rise Set
Actual Time 6:49 AM CST 4:58 PM CST
Civil Twilight 6:22 AM CST 5:25 PM CST
Nautical Twilight 5:52 AM CST 5:55 PM CST
Astronomical Twilight 5:22 AM CST 6:25 PM CST
Moon 7:20 AM CST (12/3) 6:01 PM CST (12/3)
Length of Visible Light 11h 02m
Length of Day
10h 09m
New Moon, 1% of the Moon is Illuminated
Dec 3
New Moon
Dec 9
First Quarter
Dec 17
Full
Dec 25
Last Quarter
Jan 1
New

Hourly Weather History & Observations

Time (CST) Temp. Dew Point Humidity Pressure Visibility Wind Dir Wind Speed Gust Speed Precip Events Conditions
12:15 AM 50.0 °F 50.0 °F 100% 29.74 in 0.2 mi SE 3.5 mph - N/A Fog Fog
12:45 AM 50.0 °F 48.9 °F 96% 29.74 in 0.2 mi North 3.5 mph - N/A Fog Fog
12:53 AM 50.0 °F 50.0 °F 100% 29.76 in 0.2 mi Calm Calm - N/A Fog Fog
1:10 AM 48.9 °F 48.0 °F 97% 29.73 in 0.2 mi Calm Calm - N/A Fog Fog
1:33 AM 48.0 °F 46.9 °F 96% 29.74 in 0.2 mi Calm Calm - N/A Fog Fog
1:46 AM 48.9 °F 48.0 °F 97% 29.74 in 0.2 mi Calm Calm - N/A Fog Fog
1:53 AM 50.0 °F 48.9 °F 96% 29.76 in 0.5 mi Calm Calm - N/A Fog Fog
2:33 AM 53.1 °F 53.1 °F 100% 29.74 in 0.5 mi Calm Calm - N/A Fog Fog
2:53 AM 54.0 °F 54.0 °F 100% 29.75 in 0.2 mi Calm Calm - N/A Fog Fog
3:51 AM 60.8 °F 60.8 °F 100% 29.73 in 1.2 mi South 5.8 mph - N/A   Overcast
3:53 AM 60.1 °F 60.1 °F 100% 29.75 in 1.2 mi South 4.6 mph - N/A   Overcast
4:40 AM 60.1 °F 60.1 °F 100% 29.72 in 0.8 mi South 4.6 mph - N/A   Overcast
4:53 AM 60.1 °F 60.1 °F 100% 29.74 in 1.0 mi South 5.8 mph - N/A   Overcast
5:40 AM 61.0 °F 60.1 °F 97% 29.72 in 2.5 mi Variable 3.5 mph - N/A   Overcast
5:49 AM 60.8 °F 60.8 °F 100% 29.72 in 4.0 mi SSW 5.8 mph - N/A   Overcast
5:53 AM 61.0 °F 60.1 °F 97% 29.74 in 4.0 mi Variable 5.8 mph - N/A   Overcast
6:24 AM 59.0 °F 57.9 °F 96% 29.72 in 1.5 mi Calm Calm - N/A   Mostly Cloudy
6:27 AM 57.9 °F 57.0 °F 97% 29.72 in 0.8 mi SE 3.5 mph - N/A   Mostly Cloudy
6:53 AM 57.0 °F 57.0 °F 100% 29.75 in 0.2 mi SSE 3.5 mph - N/A Fog Fog
7:31 AM 59.0 °F 57.9 °F 96% 29.74 in 1.5 mi SSE 3.5 mph - N/A   Overcast
7:53 AM 60.1 °F 60.1 °F 100% 29.77 in 2.0 mi Calm Calm - N/A   Overcast
8:38 AM 62.1 °F 61.0 °F 96% 29.75 in 3.0 mi SSE 5.8 mph - N/A   Mostly Cloudy
8:53 AM 63.0 °F 62.1 °F 97% 29.77 in 4.0 mi South 5.8 mph - N/A   Overcast
9:16 AM 64.9 °F 63.0 °F 93% 29.74 in 7.0 mi South 9.2 mph - N/A   Scattered Clouds
9:53 AM 68.0 °F 63.0 °F 84% 29.76 in 10.0 mi South 11.5 mph 16.1 mph N/A   Scattered Clouds
10:04 AM 69.1 °F 63.0 °F 81% 29.74 in 10.0 mi South 10.4 mph - N/A   Mostly Cloudy
10:53 AM 71.1 °F 63.0 °F 75% 29.75 in 10.0 mi SSW 11.5 mph - N/A   Mostly Cloudy
11:53 AM 73.0 °F 62.1 °F 68% 29.73 in 10.0 mi South 8.1 mph 18.4 mph N/A   Mostly Cloudy
12:33 PM 75.0 °F 62.1 °F 64% 29.69 in 10.0 mi SSW 10.4 mph 20.7 mph N/A   Scattered Clouds
12:53 PM 77.0 °F 62.1 °F 60% 29.70 in 10.0 mi SSW 9.2 mph 19.6 mph N/A   Scattered Clouds
1:53 PM 75.9 °F 60.1 °F 58% 29.68 in 10.0 mi SSW 12.7 mph 23.0 mph N/A   Partly Cloudy
2:53 PM 77.0 °F 60.1 °F 56% 29.67 in 10.0 mi SSW 10.4 mph 20.7 mph N/A   Clear
3:53 PM 75.9 °F 60.1 °F 58% 29.68 in 10.0 mi SSW 10.4 mph 18.4 mph N/A   Clear
4:53 PM 72.0 °F 60.1 °F 66% 29.68 in 10.0 mi South 6.9 mph - N/A   Clear
5:53 PM 66.9 °F 59.0 °F 76% 29.69 in 10.0 mi South 3.5 mph - N/A   Clear
6:53 PM 62.1 °F 57.0 °F 84% 29.70 in 10.0 mi SE 4.6 mph - N/A   Clear
7:53 PM 66.0 °F 59.0 °F 78% 29.71 in 10.0 mi South 9.2 mph - N/A   Clear
8:53 PM 69.1 °F 61.0 °F 75% 29.73 in 10.0 mi South 8.1 mph - N/A   Clear
9:53 PM 70.0 °F 63.0 °F 78% 29.75 in 10.0 mi South 9.2 mph - N/A   Mostly Cloudy
10:53 PM 71.1 °F 64.0 °F 78% 29.76 in 10.0 mi SSW 11.5 mph 23.0 mph N/A   Overcast
11:53 PM 71.1 °F 64.9 °F 81% 29.77 in 10.0 mi SSW 11.5 mph 21.9 mph N/A   Overcast